Location: Newark
(44.5208°N, 2.4294°E)
Time: 09:04:56
(UTC+00:00)

N. Korean satellite - Pass Details

Date: 18 October 2019
Orbit: 456 x 506 km, 97.2° (Epoch: 12 November)

Event Time Altitude Azimuth Distance (km) Brightness Sun altitude
Rises 17:49:02 0° 203° (SSW) 2,462 10.5 -9.2°
Reaches altitude 10° 17:51:35 10° 224° (SW) 1,595 10.0 -9.6°
Maximum altitude 17:53:54 17° 267° (W) 1,234 10.0 -10.1°
Drops below altitude 10° 17:56:14 10° 310° (NW) 1,610 9.9 -10.5°
Sets 17:58:50 0° 331° (NNW) 2,497 10.5 -10.9°
